Location: Toronto
(43.6672°N, 79.4170°W)
Time: 15:49:33
(UTC-04:00)

ISS - All Passes

Search period start: 29 July 2016 00:00
Search period end: 08 August 2016 00:00
Orbit: 401 x 403 km, 51.6° (Epoch: 29 July)

Date Brightness Start Highest point End Pass type
(mag) Time Alt. Az. Time Alt. Az. Time Alt. Az.
29 Jul - 00:34:45 10° NW 00:37:14 20° N 00:39:43 10° NE visible
29 Jul - 02:11:25 10° NW 02:14:22 30° NNE 02:17:19 10° E visible
29 Jul - 03:47:45 10° WNW 03:50:56 52° SW 03:54:05 10° SE night (unlit)
29 Jul - 20:28:13 10° S 20:30:49 22° SE 20:33:26 10° E daylight
29 Jul - 22:03:52 10° WSW 22:07:03 51° NNW 22:10:15 10° NE visible
29 Jul - 23:41:27 10° WNW 23:44:00 21° N 23:46:35 10° NE visible
30 Jul - 01:18:28 10° NW 01:21:12 24° NNE 01:23:55 10° ENE visible
30 Jul - 02:54:42 10° WNW 02:57:59 85° NE 03:01:14 10° ESE night (unlit)
30 Jul - 04:32:25 10° WSW 04:33:59 13° SW 04:35:31 10° SSW night (unlit)
30 Jul - 19:36:40 10° SSE 19:38:03 12° SE 19:39:28 10° ESE daylight
30 Jul - 21:10:46 10° WSW 21:14:02 88° NNW 21:17:18 10° ENE visible
30 Jul - 22:48:03 10° WNW 22:50:48 24° NNW 22:53:32 10° NE visible
31 Jul - 00:25:26 10° NW 00:27:59 21° N 00:30:31 10° ENE visible
31 Jul - 02:01:45 10° NW 02:04:57 50° NNE 02:08:07 10° ESE visible
31 Jul - 03:38:31 10° W 03:41:12 23° SW 03:43:51 10° SSE night (unlit)
31 Jul - 20:17:55 10° SW 20:21:04 49° SE 20:24:14 10° ENE daylight
31 Jul - 21:54:39 10° W 21:57:37 31° NNW 22:00:35 10° NE visible
31 Jul - 23:32:15 10° NW 23:34:44 19° N 23:37:12 10° NE visible
01 Aug - 01:08:49 10° NW 01:11:50 33° NNE 01:14:50 10° E visible
01 Aug - 02:45:12 10° WNW 02:48:19 43° SW 02:51:26 10° SE night (unlit)
01 Aug - 19:25:23 10° SSW 19:28:10 26° SE 19:30:58 10° ENE daylight
01 Aug - 21:01:20 10° W 21:04:28 45° NNW 21:07:38 10° NE daylight
01 Aug - 22:38:56 10° WNW 22:41:28 20° N 22:43:59 10° NE visible
02 Aug - 00:15:51 10° NW 00:18:38 25° NNE 00:21:25 10° ENE visible
02 Aug - 01:52:06 10° WNW 01:55:22 83° SSW 01:58:37 10° SE visible
02 Aug - 03:30:27 10° WSW 03:31:16 11° SW 03:32:06 10° SW night (unlit)
02 Aug - 18:33:28 10° SSE 18:35:20 15° SE 18:37:13 10° E daylight
02 Aug - 20:08:07 10° WSW 20:11:23 76° NNW 20:14:39 10° NE daylight
02 Aug - 21:45:31 10° WNW 21:48:12 23° NNW 21:50:54 10° NE visible
02 Aug - 23:22:48 10° NW 23:25:23 21° N 23:27:59 10° ENE visible
03 Aug - 00:59:05 10° NW 01:02:18 57° NNE 01:05:31 10° ESE visible
03 Aug - 02:36:02 10° W 02:38:29 20° SW 02:40:56 10° S night (unlit)
03 Aug - 19:15:09 10° SW 19:18:22 59° SE 19:21:35 10° ENE daylight
03 Aug - 20:52:04 10° W 20:54:58 29° NNW 20:57:52 10° NE daylight
03 Aug - 22:29:37 10° NW 22:32:06 20° N 22:34:35 10° NE visible
04 Aug - 00:06:06 10° NW 00:09:10 36° NNE 00:12:14 10° E visible
04 Aug - 01:42:33 10° WNW 01:45:36 36° SW 01:48:37 10° SSE night (unlit)
04 Aug - 18:22:29 10° SSW 18:25:24 31° SE 18:28:20 10° ENE daylight
04 Aug - 19:58:40 10° W 20:01:46 40° NNW 20:04:53 10° NE daylight
04 Aug - 21:36:18 10° NW 21:38:48 20° N 21:41:18 10° NE visible
04 Aug - 23:13:06 10° NW 23:15:57 27° NNE 23:18:48 10° ENE visible
05 Aug - 00:49:22 10° WNW 00:52:37 70° SW 00:55:51 10° SE visible
05 Aug - 17:30:19 10° S 17:32:31 17° SE 17:34:44 10° E daylight
05 Aug - 19:05:23 10° WSW 19:08:38 66° NNW 19:11:53 10° NE daylight
05 Aug - 20:42:51 10° WNW 20:45:30 22° N 20:48:08 10° NE daylight
05 Aug - 22:20:02 10° NW 22:22:41 22° N 22:25:19 10° ENE visible
05 Aug - 23:56:18 10° NW 23:59:33 65° NNE 00:02:47 10° ESE visible
06 Aug - 01:33:26 10° W 01:35:39 17° SW 01:37:52 10° S night (unlit)
06 Aug - 18:12:19 10° SW 18:15:32 70° SSE 18:18:47 10° ENE daylight
06 Aug - 19:49:22 10° WNW 19:52:12 27° NNW 19:55:03 10° NE daylight
06 Aug - 21:26:51 10° NW 21:29:22 20° N 21:31:52 10° NE visible
06 Aug - 23:03:16 10° NW 23:06:23 40° NNE 23:09:30 10° E visible
07 Aug - 00:39:49 10° WNW 00:42:46 31° SW 00:45:40 10° SSE visible
07 Aug - 17:19:31 10° SSW 17:22:32 36° SE 17:25:34 10° ENE daylight
07 Aug - 18:55:54 10° W 18:58:57 36° NNW 19:02:01 10° NE daylight
07 Aug - 20:33:32 10° NW 20:36:01 20° N 20:38:30 10° NE daylight
07 Aug - 22:10:15 10° NW 22:13:09 29° NNE 22:16:03 10° E visible
07 Aug - 23:46:32 10° WNW 23:49:45 59° SW 23:52:57 10° SE visible
